Regional Weather Roundup
Issued by NWS

Home | Current Version | Previous Version | Graphics & Text | Print | Product List | Glossary On
Versions: 1 2 3 4 5 6 7 8 9 10 11 12 13 14 15 16 17 18 19 20 21 22 23 24 25 26 27 28 29 30 31 32 33 34 35 36 37 38 39 40 41 42 43 44 45 46 47 48 49 50
000
ASUS43 KOAX 042102
RWRNE

WEATHER ROUNDUP FOR NEBRASKA
NATIONAL WEATHER SERVICE OMAHA NE
400 PM CDT WED MAY 04 2016

NOTES: SATELLITE DATA IS BEING USED TO AUGMENT CLOUD COVER ABOVE
       12000 FEET.
       "FAIR" INDICATES FEW OR NO CLOUDS BELOW 12,000 FEET WITH NO
       SIGNIFICANT WEATHER AND/OR OBSTRUCTIONS TO VISIBILITY.

  * THESE STATIONS DO NOT REPORT WEATHER SUCH AS RAIN...SNOW OR FOG.

NEZ001>004-019>022-054>056-042200-
NEBRASKA PANHANDLE

CITY           SKY/WX    TMP DP  RH WIND       PRES   REMARKS
SCOTTSBLUFF    SUNNY     76  38  25 E5        30.13F
ALLIANCE       SUNNY     73  40  30 NW5       30.13F
CHADRON        SUNNY     75  39  27 VRB3      30.09F
KIMBALL        SUNNY     71  32  24 CALM      30.17F
SIDNEY         SUNNY     71  37  28 VRB3      30.16F
$$

NEZ057>060-069>072-079>082-042200-
SOUTHWEST NEBRASKA

CITY           SKY/WX    TMP DP  RH WIND       PRES   REMARKS
NORTH PLATTE   SUNNY     76  38  25 NE13G18   30.09F
IMPERIAL       SUNNY     75  37  25 N7        30.12F
LEXINGTON      SUNNY     72  39  30 NE12      30.10F
MCCOOK         SUNNY     76  42  29 N10G17    30.09F
$$

NEZ005>010-023>029-035>040-094-042200-
NORTH CENTRAL NEBRASKA

CITY           SKY/WX    TMP DP  RH WIND       PRES   REMARKS
VALENTINE      SUNNY     74  35  24 NE12      30.10F
AINSWORTH      SUNNY     70  34  26 NW9       30.10F
BROKEN BOW     SUNNY     72  45  37 N12G20    30.09F
ORD            SUNNY     70  36  28 N14       30.08F
$$

NEZ041-046>049-061>064-073>077-083>087-042200-
SOUTH CENTRAL NEBRASKA

CITY           SKY/WX    TMP DP  RH WIND       PRES   REMARKS
GRAND ISLAND   SUNNY     70  31  23 N15       30.08F
AURORA         SUNNY     70  30  22 N14G25    30.07F
HASTINGS       SUNNY     70  32  24 N15G22    30.08F
KEARNEY *      SUNNY     72  34  25 N10G18    30.10F
YORK           SUNNY     68  32  26 N9G21     30.07F
$$

NEZ011>018-030>034-042>045-042200-
NORTHEAST NEBRASKA

CITY           SKY/WX    TMP DP  RH WIND       PRES   REMARKS
NORFOLK        SUNNY     68  33  27 N13       30.05F
ALBION         SUNNY     67  34  29 NW8       30.07F
BLAIR          SUNNY     67  40  37 N13G18    30.03F
COLUMBUS *     SUNNY     70  34  26 NW8G20    30.06F
FREMONT        SUNNY     68  34  29 N10G17    30.04F
TEKAMAH        SUNNY     69  40  34 N15       30.02F
$$

NEZ050>053-065>068-078-088>093-042200-
SOUTHEAST NEBRASKA

CITY           SKY/WX    TMP DP  RH WIND       PRES   REMARKS
LINCOLN        SUNNY     71  33  24 N13       30.05F
OMAHA EPPLEY   MOSUNNY   69  38  32 N20       30.02S
BEATRICE       SUNNY     69  37  30 N14G21    30.04F
FALLS CITY     SUNNY     70  37  29 N16G23    30.00F
$$

NEZ044-045-051>053-067-042200-
OMAHA AREA

CITY           SKY/WX    TMP DP  RH WIND       PRES   REMARKS
OMAHA EPPLEY   MOSUNNY   69  38  32 N20       30.02S
BLAIR          SUNNY     67  40  37 N13G18    30.03F
FREMONT        SUNNY     68  34  29 N10G17    30.04F
$$



USA.gov is the U.S. government's official web portal to all federal, state and local government web resources and services.